Year,Month,Day,Hour,Minute,Value (Times are PST for temperature in C)
2014,05,30,00,00,12.80
2014,05,30,00,01,12.70
2014,05,30,00,02,12.70
2014,05,30,00,03,12.70
2014,05,30,00,04,12.60
2014,05,30,00,05,12.60
2014,05,30,00,06,12.60
2014,05,30,00,07,12.50
2014,05,30,00,08,12.50
2014,05,30,00,09,12.40
2014,05,30,00,10,12.40
2014,05,30,00,11,12.40
2014,05,30,00,12,12.40
2014,05,30,00,13,12.30
2014,05,30,00,14,12.30
2014,05,30,00,15,12.30
2014,05,30,00,16,12.30
2014,05,30,00,17,12.20
2014,05,30,00,18,12.20
2014,05,30,00,19,12.20
2014,05,30,00,20,12.20
2014,05,30,00,21,12.20
2014,05,30,00,22,12.20
2014,05,30,00,23,12.20
2014,05,30,00,24,12.10
2014,05,30,00,25,12.10
2014,05,30,00,26,12.10
2014,05,30,00,27,12.10
2014,05,30,00,28,12.00
2014,05,30,00,29,12.00
2014,05,30,00,30,11.90
2014,05,30,00,31,11.90
2014,05,30,00,32,11.90
2014,05,30,00,33,11.90
2014,05,30,00,34,11.80
2014,05,30,00,35,11.80
2014,05,30,00,36,11.80
2014,05,30,00,37,11.80
2014,05,30,00,38,11.80
2014,05,30,00,39,11.70
2014,05,30,00,40,11.70
2014,05,30,00,41,11.70
2014,05,30,00,42,11.70
2014,05,30,00,43,11.60
2014,05,30,00,44,11.60
2014,05,30,00,45,11.60
2014,05,30,00,46,11.50
2014,05,30,00,47,11.50
2014,05,30,00,48,11.50
2014,05,30,00,49,11.40
2014,05,30,00,50,11.40
2014,05,30,00,51,11.40
2014,05,30,00,52,11.40
2014,05,30,00,53,11.40
2014,05,30,00,54,11.40
2014,05,30,00,55,11.40
2014,05,30,00,56,11.40
2014,05,30,00,57,11.30
2014,05,30,00,58,11.30
2014,05,30,00,59,11.30
2014,05,30,01,00,11.30
2014,05,30,01,01,11.30
2014,05,30,01,02,11.30
2014,05,30,01,03,11.30
2014,05,30,01,04,11.30
2014,05,30,01,05,11.30
2014,05,30,01,06,11.30
2014,05,30,01,07,11.30
2014,05,30,01,08,11.30
2014,05,30,01,09,11.30
2014,05,30,01,10,11.20
2014,05,30,01,11,11.20
2014,05,30,01,12,11.20
2014,05,30,01,13,11.10
2014,05,30,01,14,11.10
2014,05,30,01,15,11.10
2014,05,30,01,16,11.10
2014,05,30,01,17,11.00
2014,05,30,01,18,11.00
2014,05,30,01,19,11.00
2014,05,30,01,20,11.00
2014,05,30,01,21,10.90
2014,05,30,01,22,10.90
2014,05,30,01,23,10.90
2014,05,30,01,24,10.90
2014,05,30,01,25,10.80
2014,05,30,01,26,10.80
2014,05,30,01,27,10.80
2014,05,30,01,28,10.80
2014,05,30,01,29,10.70
2014,05,30,01,30,10.70
2014,05,30,01,31,10.70
2014,05,30,01,32,10.70
2014,05,30,01,33,10.60
2014,05,30,01,34,10.60
2014,05,30,01,35,10.60
2014,05,30,01,36,10.60
2014,05,30,01,37,10.60
2014,05,30,01,38,10.50
2014,05,30,01,39,10.50
2014,05,30,01,40,10.50
2014,05,30,01,41,10.50
2014,05,30,01,42,10.40
2014,05,30,01,43,10.40
2014,05,30,01,44,10.40
2014,05,30,01,45,10.30
2014,05,30,01,46,10.30
2014,05,30,01,47,10.30
2014,05,30,01,48,10.30
2014,05,30,01,49,10.30
2014,05,30,01,50,10.30
2014,05,30,01,51,10.30
2014,05,30,01,52,10.20
2014,05,30,01,53,10.20
2014,05,30,01,54,10.20
2014,05,30,01,55,10.20
2014,05,30,01,56,10.20
2014,05,30,01,57,10.20
2014,05,30,01,58,10.20
2014,05,30,01,59,10.20
2014,05,30,02,00,10.20
2014,05,30,02,01,10.10
2014,05,30,02,02,10.10
2014,05,30,02,03,10.10
2014,05,30,02,04,10.10
2014,05,30,02,05,10.00
2014,05,30,02,06,10.00
2014,05,30,02,07,10.00
2014,05,30,02,08,10.00
2014,05,30,02,09,9.90
2014,05,30,02,10,9.90
2014,05,30,02,11,9.90
2014,05,30,02,12,9.90
2014,05,30,02,13,9.90
2014,05,30,02,14,9.90
2014,05,30,02,15,9.80
2014,05,30,02,16,9.80
2014,05,30,02,17,9.80
2014,05,30,02,18,9.80
2014,05,30,02,19,9.80
2014,05,30,02,20,9.80
2014,05,30,02,21,9.80
2014,05,30,02,22,9.70
2014,05,30,02,23,9.70
2014,05,30,02,24,9.70
2014,05,30,02,25,9.70
2014,05,30,02,26,9.70
2014,05,30,02,27,9.70
2014,05,30,02,28,9.70
2014,05,30,02,29,9.60
2014,05,30,02,30,9.60
2014,05,30,02,31,9.60
2014,05,30,02,32,9.60
2014,05,30,02,33,9.60
2014,05,30,02,34,9.60
2014,05,30,02,35,9.60
2014,05,30,02,36,9.60
2014,05,30,02,37,9.60
2014,05,30,02,38,9.50
2014,05,30,02,39,9.50
2014,05,30,02,40,9.50
2014,05,30,02,41,9.40
2014,05,30,02,42,9.40
2014,05,30,02,43,9.40
2014,05,30,02,44,9.40
2014,05,30,02,45,9.40
2014,05,30,02,46,9.40
2014,05,30,02,47,9.40
2014,05,30,02,48,9.40
2014,05,30,02,49,9.40
2014,05,30,02,50,9.30
2014,05,30,02,51,9.30
2014,05,30,02,52,9.30
2014,05,30,02,53,9.30
2014,05,30,02,54,9.30
2014,05,30,02,55,9.30
2014,05,30,02,56,9.30
2014,05,30,02,57,9.30
2014,05,30,02,58,9.30
2014,05,30,02,59,9.20
2014,05,30,03,00,9.20
2014,05,30,03,01,9.20
2014,05,30,03,02,9.20
2014,05,30,03,03,9.20
2014,05,30,03,04,9.20
2014,05,30,03,05,9.20
2014,05,30,03,06,9.20
2014,05,30,03,07,9.20
2014,05,30,03,08,9.20
2014,05,30,03,09,9.20
2014,05,30,03,10,9.10
2014,05,30,03,11,9.10
2014,05,30,03,12,9.10
2014,05,30,03,13,9.10
2014,05,30,03,14,9.10
2014,05,30,03,15,9.10
2014,05,30,03,16,9.10
2014,05,30,03,17,9.10
2014,05,30,03,18,9.00
2014,05,30,03,19,9.00
2014,05,30,03,20,9.00
2014,05,30,03,21,9.00
2014,05,30,03,22,9.00
2014,05,30,03,23,8.90
2014,05,30,03,24,8.90
2014,05,30,03,25,8.90
2014,05,30,03,26,8.90
2014,05,30,03,27,8.90
2014,05,30,03,28,8.90
2014,05,30,03,29,8.90
2014,05,30,03,30,8.90
2014,05,30,03,31,8.90
2014,05,30,03,32,8.90
2014,05,30,03,33,8.90
2014,05,30,03,34,8.90
2014,05,30,03,35,8.90
2014,05,30,03,36,8.90
2014,05,30,03,37,8.90
2014,05,30,03,38,8.90
2014,05,30,03,39,8.90
2014,05,30,03,40,8.80
2014,05,30,03,41,8.80
2014,05,30,03,42,8.80
2014,05,30,03,43,8.80
2014,05,30,03,44,8.80
2014,05,30,03,45,8.80
2014,05,30,03,46,8.80
2014,05,30,03,47,8.80
2014,05,30,03,48,8.80
2014,05,30,03,49,8.70
2014,05,30,03,50,8.70
2014,05,30,03,51,8.70
2014,05,30,03,52,8.70
2014,05,30,03,53,8.70
2014,05,30,03,54,8.60
2014,05,30,03,55,8.60
2014,05,30,03,56,8.60
2014,05,30,03,57,8.60
2014,05,30,03,58,8.60
2014,05,30,03,59,8.60
2014,05,30,04,00,8.60
2014,05,30,04,01,8.60
2014,05,30,04,02,8.60
2014,05,30,04,03,8.70
2014,05,30,04,04,8.70
2014,05,30,04,05,8.70
2014,05,30,04,06,8.70
2014,05,30,04,07,8.70
2014,05,30,04,08,8.70
2014,05,30,04,09,8.70
2014,05,30,04,10,8.60
2014,05,30,04,11,8.60
2014,05,30,04,12,8.60
2014,05,30,04,13,8.60
2014,05,30,04,14,8.60
2014,05,30,04,15,8.60
2014,05,30,04,16,8.60
2014,05,30,04,17,8.60
2014,05,30,04,18,8.60
2014,05,30,04,19,8.60
2014,05,30,04,20,8.60
2014,05,30,04,21,8.60
2014,05,30,04,22,8.60
2014,05,30,04,23,8.50
2014,05,30,04,24,8.50
2014,05,30,04,25,8.50
2014,05,30,04,26,8.50
2014,05,30,04,27,8.50
2014,05,30,04,28,8.50
2014,05,30,04,29,8.40
2014,05,30,04,30,8.40
2014,05,30,04,31,8.40
2014,05,30,04,32,8.30
2014,05,30,04,33,8.30
2014,05,30,04,34,8.30
2014,05,30,04,35,8.30
2014,05,30,04,36,8.30
2014,05,30,04,37,8.20
2014,05,30,04,38,8.20
2014,05,30,04,39,8.20
2014,05,30,04,40,8.20
2014,05,30,04,41,8.10
2014,05,30,04,42,8.10
2014,05,30,04,43,8.10
2014,05,30,04,44,8.10
2014,05,30,04,45,8.00
2014,05,30,04,46,8.00
2014,05,30,04,47,8.00
2014,05,30,04,48,8.00
2014,05,30,04,49,8.00
2014,05,30,04,50,7.90
2014,05,30,04,51,7.90
2014,05,30,04,52,7.90
2014,05,30,04,53,7.90
2014,05,30,04,54,7.90
2014,05,30,04,55,7.90
2014,05,30,04,56,7.90
2014,05,30,04,57,7.90
2014,05,30,04,58,7.90
2014,05,30,04,59,7.90
2014,05,30,05,00,7.90
2014,05,30,05,01,7.90
2014,05,30,05,02,7.90
2014,05,30,05,03,7.90
2014,05,30,05,04,7.90
2014,05,30,05,05,7.90
2014,05,30,05,06,7.90
2014,05,30,05,07,7.90
2014,05,30,05,08,7.90
2014,05,30,05,09,7.90
2014,05,30,05,10,7.90
2014,05,30,05,11,7.90
2014,05,30,05,12,7.80
2014,05,30,05,13,7.80
2014,05,30,05,14,7.80
2014,05,30,05,15,7.80
2014,05,30,05,16,7.80
2014,05,30,05,17,7.80
2014,05,30,05,18,7.80
2014,05,30,05,19,7.80
2014,05,30,05,20,7.80
2014,05,30,05,21,7.80
2014,05,30,05,22,7.80
2014,05,30,05,23,7.80
2014,05,30,05,24,7.80
2014,05,30,05,25,7.80
2014,05,30,05,26,7.80
2014,05,30,05,27,7.80
2014,05,30,05,28,7.80
2014,05,30,05,29,7.70
2014,05,30,05,30,7.70
2014,05,30,05,31,7.70
2014,05,30,05,32,7.70
2014,05,30,05,33,7.70
2014,05,30,05,34,7.70
2014,05,30,05,35,7.70
2014,05,30,05,36,7.70
2014,05,30,05,37,7.70
2014,05,30,05,38,7.70
2014,05,30,05,39,7.70
2014,05,30,05,40,7.70
2014,05,30,05,41,7.70
2014,05,30,05,42,7.70
2014,05,30,05,43,7.70
2014,05,30,05,44,7.70
2014,05,30,05,45,7.70
2014,05,30,05,46,7.70
2014,05,30,05,47,7.80
2014,05,30,05,48,7.80
2014,05,30,05,49,7.80
2014,05,30,05,50,7.80
2014,05,30,05,51,7.80
2014,05,30,05,52,7.80
2014,05,30,05,53,7.80
2014,05,30,05,54,7.90
2014,05,30,05,55,7.90
2014,05,30,05,56,7.90
2014,05,30,05,57,7.90
2014,05,30,05,58,7.90
2014,05,30,05,59,7.90
2014,05,30,06,00,8.00
2014,05,30,06,01,8.00
2014,05,30,06,02,8.00
2014,05,30,06,03,8.10
2014,05,30,06,04,8.10
2014,05,30,06,05,8.10
2014,05,30,06,06,8.20
2014,05,30,06,07,8.20
2014,05,30,06,08,8.20
2014,05,30,06,09,8.20
2014,05,30,06,10,8.20
2014,05,30,06,11,8.30
2014,05,30,06,12,8.30
2014,05,30,06,13,8.30
2014,05,30,06,14,8.30
2014,05,30,06,15,8.30
2014,05,30,06,16,8.30
2014,05,30,06,17,8.30
2014,05,30,06,18,8.40
2014,05,30,06,19,8.40
2014,05,30,06,20,8.40
2014,05,30,06,21,8.40
2014,05,30,06,22,8.50
2014,05,30,06,23,8.50
2014,05,30,06,24,8.50
2014,05,30,06,25,8.60
2014,05,30,06,26,8.60
2014,05,30,06,27,8.70
2014,05,30,06,28,8.70
2014,05,30,06,29,8.80
2014,05,30,06,30,8.80
2014,05,30,06,31,8.80
2014,05,30,06,32,8.90
2014,05,30,06,33,8.90
2014,05,30,06,34,9.00
2014,05,30,06,35,9.00
2014,05,30,06,36,9.10
2014,05,30,06,37,9.10
2014,05,30,06,38,9.20
2014,05,30,06,39,9.20
2014,05,30,06,40,9.20
2014,05,30,06,41,9.30
2014,05,30,06,42,9.30
2014,05,30,06,43,9.30
2014,05,30,06,44,9.30
2014,05,30,06,45,9.40
2014,05,30,06,46,9.40
2014,05,30,06,47,9.40
2014,05,30,06,48,9.50
2014,05,30,06,49,9.50
2014,05,30,06,50,9.60
2014,05,30,06,51,9.60
2014,05,30,06,52,9.60
2014,05,30,06,53,9.70
2014,05,30,06,54,9.70
2014,05,30,06,55,9.70
2014,05,30,06,56,9.80
2014,05,30,06,57,9.80
2014,05,30,06,58,9.90
2014,05,30,06,59,9.90
2014,05,30,07,00,9.90
2014,05,30,07,01,9.90
2014,05,30,07,02,10.00
2014,05,30,07,03,10.00
2014,05,30,07,04,10.00
2014,05,30,07,05,10.10
2014,05,30,07,06,10.10
2014,05,30,07,07,10.10
2014,05,30,07,08,10.20
2014,05,30,07,09,10.20
2014,05,30,07,10,10.20
2014,05,30,07,11,10.30
2014,05,30,07,12,10.30
2014,05,30,07,13,10.30
2014,05,30,07,14,10.40
2014,05,30,07,15,10.40
2014,05,30,07,16,10.50
2014,05,30,07,17,10.50
2014,05,30,07,18,10.60
2014,05,30,07,19,10.60
2014,05,30,07,20,10.60
2014,05,30,07,21,10.70
2014,05,30,07,22,10.70
2014,05,30,07,23,10.80
2014,05,30,07,24,10.80
2014,05,30,07,25,10.90
2014,05,30,07,26,10.90
2014,05,30,07,27,11.10
2014,05,30,07,28,11.20
2014,05,30,07,29,11.30
2014,05,30,07,30,11.40
2014,05,30,07,31,11.50
2014,05,30,07,32,11.60
2014,05,30,07,33,11.70
2014,05,30,07,34,11.90
2014,05,30,07,35,12.00
2014,05,30,07,36,12.10
2014,05,30,07,37,12.30
2014,05,30,07,38,12.40
2014,05,30,07,39,12.50
2014,05,30,07,40,12.60
2014,05,30,07,41,12.70
2014,05,30,07,42,12.70
2014,05,30,07,43,12.70
2014,05,30,07,44,12.80
2014,05,30,07,45,12.90
2014,05,30,07,46,12.90
2014,05,30,07,47,13.00
2014,05,30,07,48,13.00
2014,05,30,07,49,13.10
2014,05,30,07,50,13.10
2014,05,30,07,51,13.20
2014,05,30,07,52,13.20
2014,05,30,07,53,13.20
2014,05,30,07,54,13.30
2014,05,30,07,55,13.40
2014,05,30,07,56,13.50
2014,05,30,07,57,13.60
2014,05,30,07,58,13.60
2014,05,30,07,59,13.70
2014,05,30,08,00,13.70
2014,05,30,08,01,13.70
2014,05,30,08,02,13.70
2014,05,30,08,03,13.70
2014,05,30,08,04,13.70
2014,05,30,08,05,13.60
2014,05,30,08,06,13.60
2014,05,30,08,07,13.60
2014,05,30,08,08,13.60
2014,05,30,08,09,13.60
2014,05,30,08,10,13.60
2014,05,30,08,11,13.60
2014,05,30,08,12,13.70
2014,05,30,08,13,13.80
2014,05,30,08,14,13.80
2014,05,30,08,15,13.90
2014,05,30,08,16,13.90
2014,05,30,08,17,14.00
2014,05,30,08,18,14.10
2014,05,30,08,19,14.20
2014,05,30,08,20,14.20
2014,05,30,08,21,14.30
2014,05,30,08,22,14.30
2014,05,30,08,23,14.30
2014,05,30,08,24,14.30
2014,05,30,08,25,14.30
2014,05,30,08,26,14.30
2014,05,30,08,27,14.30
2014,05,30,08,28,14.30
2014,05,30,08,29,14.30
2014,05,30,08,30,14.30
2014,05,30,08,31,14.40
2014,05,30,08,32,14.40
2014,05,30,08,33,14.50
2014,05,30,08,34,14.60
2014,05,30,08,35,14.60
2014,05,30,08,36,14.70
2014,05,30,08,37,14.70
2014,05,30,08,38,14.80
2014,05,30,08,39,14.90
2014,05,30,08,40,14.90
2014,05,30,08,41,15.00
2014,05,30,08,42,15.10
2014,05,30,08,43,15.10
2014,05,30,08,44,15.10
2014,05,30,08,45,15.10
2014,05,30,08,46,15.10
2014,05,30,08,47,15.10
2014,05,30,08,48,15.20
2014,05,30,08,49,15.20
2014,05,30,08,50,15.30
2014,05,30,08,51,15.30
2014,05,30,08,52,15.30
2014,05,30,08,53,15.40
2014,05,30,08,54,15.40
2014,05,30,08,55,15.40
2014,05,30,08,56,15.40
2014,05,30,08,57,15.40
2014,05,30,08,58,15.40
2014,05,30,08,59,15.40
2014,05,30,09,00,15.30
2014,05,30,09,01,15.30
2014,05,30,09,02,15.20
2014,05,30,09,03,15.10
2014,05,30,09,04,15.00
2014,05,30,09,05,14.90
2014,05,30,09,06,14.80
2014,05,30,09,07,14.60
2014,05,30,09,08,14.60
2014,05,30,09,09,14.60
2014,05,30,09,10,14.60
2014,05,30,09,11,14.50
2014,05,30,09,12,14.50
2014,05,30,09,13,14.40
2014,05,30,09,14,14.30
2014,05,30,09,15,14.30
2014,05,30,09,16,14.30
2014,05,30,09,17,14.30
2014,05,30,09,18,14.40
2014,05,30,09,19,14.40
2014,05,30,09,20,14.40
2014,05,30,09,21,14.40
2014,05,30,09,22,14.50
2014,05,30,09,23,14.50
2014,05,30,09,24,14.60
2014,05,30,09,25,14.70
2014,05,30,09,26,14.70
2014,05,30,09,27,14.80
2014,05,30,09,28,14.80
2014,05,30,09,29,14.90
2014,05,30,09,30,14.90
2014,05,30,09,31,14.90
2014,05,30,09,32,15.00
2014,05,30,09,33,15.00
2014,05,30,09,34,15.10
2014,05,30,09,35,15.20
2014,05,30,09,36,15.20
2014,05,30,09,37,15.30
2014,05,30,09,38,15.30
2014,05,30,09,39,15.30
2014,05,30,09,40,15.20
2014,05,30,09,41,15.10
2014,05,30,09,42,15.00
2014,05,30,09,43,14.90
2014,05,30,09,44,14.80
2014,05,30,09,45,14.80
2014,05,30,09,46,14.70
2014,05,30,09,47,14.70
2014,05,30,09,48,14.70
2014,05,30,09,49,14.70
2014,05,30,09,50,14.70
2014,05,30,09,51,14.70
2014,05,30,09,52,14.70
2014,05,30,09,53,14.70
2014,05,30,09,54,14.70
2014,05,30,09,55,14.70
2014,05,30,09,56,14.80
2014,05,30,09,57,14.80
2014,05,30,09,58,14.90
2014,05,30,09,59,14.90
2014,05,30,10,00,14.90
2014,05,30,10,01,15.00
2014,05,30,10,02,15.10
2014,05,30,10,03,15.20
2014,05,30,10,04,15.20
2014,05,30,10,05,15.20
2014,05,30,10,06,15.20
2014,05,30,10,07,15.30
2014,05,30,10,08,15.30
2014,05,30,10,09,15.30
2014,05,30,10,10,15.30
2014,05,30,10,11,15.20
2014,05,30,10,12,15.20
2014,05,30,10,13,15.20
2014,05,30,10,14,15.20
2014,05,30,10,15,15.20
2014,05,30,10,16,15.20
2014,05,30,10,17,15.30
2014,05,30,10,18,15.40
2014,05,30,10,19,15.40
2014,05,30,10,20,15.30
2014,05,30,10,21,15.10
2014,05,30,10,22,15.00
2014,05,30,10,23,15.00
2014,05,30,10,24,15.00
2014,05,30,10,25,15.00
2014,05,30,10,26,15.00
2014,05,30,10,27,15.10
2014,05,30,10,28,15.00
2014,05,30,10,29,15.00
2014,05,30,10,30,15.00
2014,05,30,10,31,15.00
2014,05,30,10,32,15.00
2014,05,30,10,33,15.00
2014,05,30,10,34,15.10
2014,05,30,10,35,15.10
2014,05,30,10,36,15.20
2014,05,30,10,37,15.20
2014,05,30,10,38,15.10
2014,05,30,10,39,15.10
2014,05,30,10,40,15.10
2014,05,30,10,41,15.00
2014,05,30,10,42,15.00
2014,05,30,10,43,14.90
2014,05,30,10,44,14.90
2014,05,30,10,45,14.90
2014,05,30,10,46,14.90
2014,05,30,10,47,15.00
2014,05,30,10,48,15.00
2014,05,30,10,49,15.10
2014,05,30,10,50,15.10
2014,05,30,10,51,15.10
2014,05,30,10,52,15.10
2014,05,30,10,53,15.10
2014,05,30,10,54,15.10
2014,05,30,10,55,15.20
2014,05,30,10,56,15.20
2014,05,30,10,57,15.20
2014,05,30,10,58,15.30
2014,05,30,10,59,15.40
2014,05,30,11,00,15.50
2014,05,30,11,01,15.50
2014,05,30,11,02,15.60
2014,05,30,11,03,15.60
2014,05,30,11,04,15.60
2014,05,30,11,05,15.70
2014,05,30,11,06,15.60
2014,05,30,11,07,15.30
2014,05,30,11,08,15.20
2014,05,30,11,09,15.10
2014,05,30,11,10,15.00
2014,05,30,11,11,14.90
2014,05,30,11,12,14.80
2014,05,30,11,13,14.90
2014,05,30,11,14,14.90
2014,05,30,11,15,14.90
2014,05,30,11,16,14.80
2014,05,30,11,17,14.80
2014,05,30,11,18,14.80
2014,05,30,11,19,14.80
2014,05,30,11,20,14.80
2014,05,30,11,21,14.90
2014,05,30,11,22,15.00
2014,05,30,11,23,15.10
2014,05,30,11,24,15.20
2014,05,30,11,25,15.30
2014,05,30,11,26,15.30
2014,05,30,11,27,15.40
2014,05,30,11,28,15.50
2014,05,30,11,29,15.60
2014,05,30,11,30,15.70
2014,05,30,11,31,15.80
2014,05,30,11,32,15.80
2014,05,30,11,33,15.80
2014,05,30,11,34,15.90
2014,05,30,11,35,15.90
2014,05,30,11,36,16.00
2014,05,30,11,37,16.00
2014,05,30,11,38,15.90
2014,05,30,11,39,15.90
2014,05,30,11,40,15.90
2014,05,30,11,41,15.90
2014,05,30,11,42,16.00
2014,05,30,11,43,16.00
2014,05,30,11,44,16.10
2014,05,30,11,45,16.10
2014,05,30,11,46,16.00
2014,05,30,11,47,15.90
2014,05,30,11,48,15.90
2014,05,30,11,49,15.80
2014,05,30,11,50,15.70
2014,05,30,11,51,15.60
2014,05,30,11,52,15.50
2014,05,30,11,53,15.40
2014,05,30,11,54,15.30
2014,05,30,11,55,15.30
2014,05,30,11,56,15.40
2014,05,30,11,57,15.40
2014,05,30,11,58,15.50
2014,05,30,11,59,15.50
2014,05,30,12,00,15.60
2014,05,30,12,01,15.60
2014,05,30,12,02,15.60
2014,05,30,12,03,15.60
2014,05,30,12,04,15.60
2014,05,30,12,05,15.60
2014,05,30,12,06,15.60
2014,05,30,12,07,15.70
2014,05,30,12,08,15.80
2014,05,30,12,09,15.90
2014,05,30,12,10,15.80
2014,05,30,12,11,15.70
2014,05,30,12,12,15.70
2014,05,30,12,13,15.60
2014,05,30,12,14,15.60
2014,05,30,12,15,15.60
2014,05,30,12,16,15.60
2014,05,30,12,17,15.70
2014,05,30,12,18,15.70
2014,05,30,12,19,15.60
2014,05,30,12,20,15.60
2014,05,30,12,21,15.60
2014,05,30,12,22,15.70
2014,05,30,12,23,15.70
2014,05,30,12,24,15.70
2014,05,30,12,25,15.70
2014,05,30,12,26,15.70
2014,05,30,12,27,15.60
2014,05,30,12,28,15.50
2014,05,30,12,29,15.40
2014,05,30,12,30,15.40
2014,05,30,12,31,15.40
2014,05,30,12,32,15.40
2014,05,30,12,33,15.30
2014,05,30,12,34,15.30
2014,05,30,12,35,15.20
2014,05,30,12,36,15.20
2014,05,30,12,37,15.20
2014,05,30,12,38,15.20
2014,05,30,12,39,15.20
2014,05,30,12,40,15.30
2014,05,30,12,41,15.30
2014,05,30,12,42,15.30
2014,05,30,12,43,15.30
2014,05,30,12,44,15.30
2014,05,30,12,45,15.30
2014,05,30,12,46,15.30
2014,05,30,12,47,15.30
2014,05,30,12,48,15.40
2014,05,30,12,49,15.50
2014,05,30,12,50,15.60
2014,05,30,12,51,15.70
2014,05,30,12,52,15.80
2014,05,30,12,53,15.80
2014,05,30,12,54,15.80
2014,05,30,12,55,15.90
2014,05,30,12,56,15.90
2014,05,30,12,57,15.90
2014,05,30,12,58,15.90
2014,05,30,12,59,15.80
2014,05,30,13,00,15.80
2014,05,30,13,01,15.80
2014,05,30,13,02,15.70
2014,05,30,13,03,15.60
2014,05,30,13,04,15.60
2014,05,30,13,05,15.70
2014,05,30,13,06,15.80
2014,05,30,13,07,15.90
2014,05,30,13,08,15.90
2014,05,30,13,09,15.90
2014,05,30,13,10,16.00
2014,05,30,13,11,16.10
2014,05,30,13,12,16.20
2014,05,30,13,13,16.30
2014,05,30,13,14,16.30
2014,05,30,13,15,16.20
2014,05,30,13,16,16.10
2014,05,30,13,17,16.00
2014,05,30,13,18,16.10
2014,05,30,13,19,16.00
2014,05,30,13,20,15.90
2014,05,30,13,21,15.90
2014,05,30,13,22,16.00
2014,05,30,13,23,16.10
2014,05,30,13,24,16.10
2014,05,30,13,25,16.20
2014,05,30,13,26,16.20
2014,05,30,13,27,16.20
2014,05,30,13,28,16.20
2014,05,30,13,29,16.20
2014,05,30,13,30,16.20
2014,05,30,13,31,16.20
2014,05,30,13,32,16.20
2014,05,30,13,33,16.30
2014,05,30,13,34,16.40
2014,05,30,13,35,16.40
2014,05,30,13,36,16.30
2014,05,30,13,37,16.40
2014,05,30,13,38,16.40
2014,05,30,13,39,16.40
2014,05,30,13,40,16.40
2014,05,30,13,41,16.40
2014,05,30,13,42,16.40
2014,05,30,13,43,16.50
2014,05,30,13,44,16.60
2014,05,30,13,45,16.70
2014,05,30,13,46,16.80
2014,05,30,13,47,16.90
2014,05,30,13,48,17.00
2014,05,30,13,49,17.00
2014,05,30,13,50,17.10
2014,05,30,13,51,17.10
2014,05,30,13,52,17.00
2014,05,30,13,53,16.90
2014,05,30,13,54,16.90
2014,05,30,13,55,16.90
2014,05,30,13,56,16.90
2014,05,30,13,57,16.90
2014,05,30,13,58,16.90
2014,05,30,13,59,16.80
2014,05,30,14,00,16.80
2014,05,30,14,01,16.80
2014,05,30,14,02,16.80
2014,05,30,14,03,16.80
2014,05,30,14,04,16.80
2014,05,30,14,05,16.80
2014,05,30,14,06,16.80
2014,05,30,14,07,16.80
2014,05,30,14,08,16.80
2014,05,30,14,09,16.70
2014,05,30,14,10,16.60
2014,05,30,14,11,16.50
2014,05,30,14,12,16.40
2014,05,30,14,13,16.30
2014,05,30,14,14,16.30
2014,05,30,14,15,16.30
2014,05,30,14,16,16.20
2014,05,30,14,17,16.20
2014,05,30,14,18,16.30
2014,05,30,14,19,16.40
2014,05,30,14,20,16.50
2014,05,30,14,21,16.60
2014,05,30,14,22,16.60
2014,05,30,14,23,16.60
2014,05,30,14,24,16.60
2014,05,30,14,25,16.70
2014,05,30,14,26,16.70
2014,05,30,14,27,16.70
2014,05,30,14,28,16.70
2014,05,30,14,29,16.70
2014,05,30,14,30,16.70
2014,05,30,14,31,16.70
2014,05,30,14,32,16.70
2014,05,30,14,33,16.70
2014,05,30,14,34,16.80
2014,05,30,14,35,16.80
2014,05,30,14,36,17.00
2014,05,30,14,37,17.10
2014,05,30,14,38,17.20
2014,05,30,14,39,17.30
2014,05,30,14,40,17.40
2014,05,30,14,41,17.40
2014,05,30,14,42,17.50
2014,05,30,14,43,17.60
2014,05,30,14,44,17.50
2014,05,30,14,45,17.50
2014,05,30,14,46,17.60
2014,05,30,14,47,17.60
2014,05,30,14,48,17.70
2014,05,30,14,49,17.80
2014,05,30,14,50,17.80
2014,05,30,14,51,17.80
2014,05,30,14,52,17.70
2014,05,30,14,53,17.70
2014,05,30,14,54,17.80
2014,05,30,14,55,17.80
2014,05,30,14,56,17.90
2014,05,30,14,57,17.90
2014,05,30,14,58,17.90
2014,05,30,14,59,18.00
2014,05,30,15,00,18.20
2014,05,30,15,01,18.40
2014,05,30,15,02,18.50
2014,05,30,15,03,18.60
2014,05,30,15,04,18.70
2014,05,30,15,05,18.60
2014,05,30,15,06,18.40
2014,05,30,15,07,18.10
2014,05,30,15,08,17.90
2014,05,30,15,09,17.80
2014,05,30,15,10,17.70
2014,05,30,15,11,17.70
2014,05,30,15,12,17.70
2014,05,30,15,13,17.90
2014,05,30,15,14,18.00
2014,05,30,15,15,18.00
2014,05,30,15,16,18.10
2014,05,30,15,17,18.20
2014,05,30,15,18,18.20
2014,05,30,15,19,18.30
2014,05,30,15,20,18.20
2014,05,30,15,21,18.10
2014,05,30,15,22,18.00
2014,05,30,15,23,18.00
2014,05,30,15,24,18.00
2014,05,30,15,25,18.00
2014,05,30,15,26,18.00
2014,05,30,15,27,18.00
2014,05,30,15,28,18.00
2014,05,30,15,29,17.90
2014,05,30,15,30,17.80
2014,05,30,15,31,17.70
2014,05,30,15,32,17.60
2014,05,30,15,33,17.60
2014,05,30,15,34,17.60
2014,05,30,15,35,17.50
2014,05,30,15,36,17.50
2014,05,30,15,37,17.40
2014,05,30,15,38,17.50
2014,05,30,15,39,17.50
2014,05,30,15,40,17.60
2014,05,30,15,41,17.70
2014,05,30,15,42,17.80
2014,05,30,15,43,17.70
2014,05,30,15,44,17.70
2014,05,30,15,45,17.60
2014,05,30,15,46,17.60
2014,05,30,15,47,17.40
2014,05,30,15,48,17.30
2014,05,30,15,49,17.10
2014,05,30,15,50,17.00
2014,05,30,15,51,17.00
2014,05,30,15,52,17.00
2014,05,30,15,53,17.10
2014,05,30,15,54,17.20
2014,05,30,15,55,17.40
2014,05,30,15,56,17.50
2014,05,30,15,57,17.50
2014,05,30,15,58,17.60
2014,05,30,15,59,17.70
2014,05,30,16,00,17.70
2014,05,30,16,01,17.80
2014,05,30,16,02,17.80
2014,05,30,16,03,17.80
2014,05,30,16,04,17.90
2014,05,30,16,05,17.90
2014,05,30,16,06,18.00
2014,05,30,16,07,18.00
2014,05,30,16,08,18.00
2014,05,30,16,09,18.00
2014,05,30,16,10,18.00
2014,05,30,16,11,17.90
2014,05,30,16,12,17.90
2014,05,30,16,13,17.90
2014,05,30,16,14,17.80
2014,05,30,16,15,17.80
2014,05,30,16,16,17.80
2014,05,30,16,17,17.90
2014,05,30,16,18,17.90
2014,05,30,16,19,17.90
2014,05,30,16,20,17.90
2014,05,30,16,21,18.00
2014,05,30,16,22,18.10
2014,05,30,16,23,18.20
2014,05,30,16,24,18.20
2014,05,30,16,25,18.10
2014,05,30,16,26,18.10
2014,05,30,16,27,18.10
2014,05,30,16,28,18.10
2014,05,30,16,29,18.10
2014,05,30,16,30,18.10
2014,05,30,16,31,18.10
2014,05,30,16,32,18.10
2014,05,30,16,33,18.10
2014,05,30,16,34,18.10
2014,05,30,16,35,18.20
2014,05,30,16,36,18.10
2014,05,30,16,37,18.10
2014,05,30,16,38,18.10
2014,05,30,16,39,18.10
2014,05,30,16,40,18.10
2014,05,30,16,41,18.00
2014,05,30,16,42,18.00
2014,05,30,16,43,18.00
2014,05,30,16,44,18.00
2014,05,30,16,45,17.90
2014,05,30,16,46,18.00
2014,05,30,16,47,18.10
2014,05,30,16,48,18.20
2014,05,30,16,49,18.30
2014,05,30,16,50,18.40
2014,05,30,16,51,18.40
2014,05,30,16,52,18.40
2014,05,30,16,53,18.30
2014,05,30,16,54,18.30
2014,05,30,16,55,18.30
2014,05,30,16,56,18.40
2014,05,30,16,57,18.40
2014,05,30,16,58,18.50
2014,05,30,16,59,18.60
2014,05,30,17,00,18.50
2014,05,30,17,01,18.40
2014,05,30,17,02,18.30
2014,05,30,17,03,18.20
2014,05,30,17,04,18.10
2014,05,30,17,05,18.00
2014,05,30,17,06,17.90
2014,05,30,17,07,18.00
2014,05,30,17,08,17.90
2014,05,30,17,09,17.90
2014,05,30,17,10,17.90
2014,05,30,17,11,17.90
2014,05,30,17,12,18.00
2014,05,30,17,13,18.00
2014,05,30,17,14,18.00
2014,05,30,17,15,17.90
2014,05,30,17,16,17.90
2014,05,30,17,17,18.00
2014,05,30,17,18,18.00
2014,05,30,17,19,18.10
2014,05,30,17,20,18.00
2014,05,30,17,21,18.00
2014,05,30,17,22,17.90
2014,05,30,17,23,17.80
2014,05,30,17,24,17.90
2014,05,30,17,25,17.90
2014,05,30,17,26,18.00
2014,05,30,17,27,18.00
2014,05,30,17,28,18.10
2014,05,30,17,29,18.10
2014,05,30,17,30,18.20
2014,05,30,17,31,18.10
2014,05,30,17,32,18.10